Location: ???????
(55.3754°N, 39.3545°E)
Time: 08:06:35
(UTC+00:00)

Cosmos 2298 Rocket - Pass Details

Date: 14 April 2026
Orbit: 772 x 782 km, 74.0° (Epoch: 14 May)

Event Time Altitude Azimuth Distance (km) Brightness Sun altitude
Exits shadow 20:20:48 43° 223° (SW) 1,080 4.5 -23.7°
Maximum altitude 20:22:32 76° 299° (WNW) 808 4.1 -23.8°
Drops below altitude 10° 20:27:53 10° 26° (NNE) 2,346 7.1 -24.0°
Sets 20:30:18 0° 28° (NNE) 3,280 8.0 -24.1°
